カタログに戻る

RADARSAT 2

運用中科学SSO
NORAD 32382·PAYLOAD·🇨🇦 Canada

打ち上げ Dec 14, 2007 から Baikonur Cosmodrome

Loading…

次のパス (今後24時間)

TLE

最新Source: Space-Track

元期: Sep 14, 2026, 14:24 UTC

1 32382U 07061A   26257.60055191 -.00000087  00000-0 -16861-4 0  9994
2 32382  98.5814 263.2701 0001230  81.8494 278.2828 14.29982098978739

AllMySatでRADARSAT 2をリアルタイム追跡

Download on the App Store